Location: *
(43.9905°S, 176.4941°W)
Time: 15:51:18
(UTC+00:00)

ATLAS 5 CENTAUR R/B - Pass Details

Date: 08 December 2019
Orbit: 550 x 1109 km, 63.4° (Epoch: 20 January)

Event Time Altitude Azimuth Distance (km) Brightness Sun altitude
Rises 11:07:26 0° 216° (SW) 3,449 6.4 -22.9°
Reaches altitude 10° 11:10:10 10° 211° (SSW) 2,413 5.5 -23.0°
Maximum altitude 11:15:34 56° 133° (SE) 861 2.4 -23.1°
Enters shadow 11:17:14 37° 75° (ENE) 1,078 2.6 -23.1°
